User: anonymous   Login
Location: Wingville
(42.9917°N, 90.4915°W)
Time: 03:03:30
(UTC+00:00)
Language:

QB50P2 - Orbit

View from above orbital plane
View from above orbital plane
View from above satellite
View from above satellite

Ground track
Ground track

The orbit data is extracted from the following two-line orbital elements,

1 40032U 14033Y   22178.49057055  .00001535  00000-0  16511-3 0  9996
2 40032  97.9383 111.3115 0012464  28.7289 331.4612 14.89963119435111
Epoch (UTC): 27 June 2022 11:46:25
Eccentricity: 0.0012464
inclination: 97.9383°
perigee height: 589 km
apogee height: 607 km
right ascension of ascending node: 111.3115°
argument of perigee: 28.7289°
revolutions per day: 14.89963119
mean anomaly at epoch: 331.4612°
orbit number at epoch: 43511

The dashed part of the orbit path shows where the satellite is in the earth's shadow,  

DLR